Location: Austin
(30.3000°N, 97.7500°W)
Time: 06:25:51
(UTC-06:00)

Cosmos 2058 Rocket - Pass Details

Date: 03 March 2026
Orbit: 605 x 631 km, 82.5° (Epoch: 5 March)

Event Time Altitude Azimuth Distance (km) Brightness Sun altitude
Rises 19:04:20 0° 2° (N) 2,924 6.5 -7.9°
Reaches altitude 10° 19:06:41 10° 10° (N) 2,014 5.6 -8.4°
Maximum altitude 19:10:55 42° 81° (E) 906 3.5 -9.3°
Drops below altitude 10° 19:15:08 10° 152° (SSE) 2,000 5.4 -10.2°
Sets 19:17:27 0° 160° (SSE) 2,902 6.3 -10.7°
